Zurück zum Katalog

SL-16 DEB

AktivLEO
NORAD 22340·DEBRIS·🇷🇺 Russia

Gestartet Dec 25, 1992 von Baikonur Cosmodrome

Loading…

Nächste Überflüge (nächste 24 Stunden)

TLE

AktuellSource: Space-Track

Epoche: Sep 14, 2026, 12:54 UTC

1 22340U 92093AD  26257.53800037  .00000011  00000-0  41430-4 0  9990
2 22340  70.8749 296.1260 0103010 237.8648 194.6727 13.94560292715074

Verfolge SL-16 DEB in Echtzeit mit AllMySat

Download on the App Store